Istanbul, Turkey

10:21 AM +03 on April 27, 2017 (GMT +0300)
Ataturk

Weather History for LTBA - November, 2012

Change the Weather History Date:

Saturday, November 10, 2012

  Actual Average Record
Temperature  
Mean Temperature 56 °F -  
Max Temperature 59 °F 54 °F 71 °F (2010)
Min Temperature 53 °F 45 °F 41 °F (2007)
Degree Days  
Heating Degree Days 9    
Growing Degree Days 6 (Base 50)    
Moisture  
Dew Point 46 °F    
Average Humidity 67    
Maximum Humidity 82    
Minimum Humidity 50    
Precipitation  
Precipitation 0.03 in - - ()
Sea Level Pressure  
Sea Level Pressure 30.07 in    
Wind  
Wind Speed 12 mph ()    
Max Wind Speed 24 mph    
Max Gust Speed -    
Visibility 6.0 miles    
Events Rain    
Averages and records for this station are not official NWS values.
T = Trace of Precipitation, MM = Missing Value Source: Averaged Metar Reports

Daily Weather History Graph

Daily Weather History Graph

Search for Another Location

Airport or City:

Trip Planner

Search our weather history database for the weather conditions in past years. The results will help you decide how hot, cold, wet, or windy it might be!

Date:

Astronomy

Nov. 10, 2012 Rise Set
Actual Time 6:46 AM EET 4:50 PM EET
Civil Twilight 6:17 AM EET 5:19 PM EET
Nautical Twilight 5:44 AM EET 5:52 PM EET
Astronomical Twilight 5:11 AM EET 6:24 PM EET
Moon 2:27 AM EET (11/10) 2:27 PM EET (11/10)
Length of Visible Light 11h 02m
Length of Day
10h 04m
Waning Crescent, 17% of the Moon is Illuminated
Nov 10
Waning Crescent
Nov 14
New
Nov 20
First Quarter
Nov 28
Full
Dec 6
Last Quarter

Hourly Weather History & Observations

Time (EET) Temp. Dew Point Humidity Pressure Visibility Wind Dir Wind Speed Gust Speed Precip Events Conditions
12:20 AM 55.4 °F 46.4 °F 72% 29.98 in 6.2 mi NW 9.2 mph - N/A   Mostly Cloudy
12:50 AM 55.4 °F 44.6 °F 67% 29.98 in 6.2 mi NNW 11.5 mph - N/A   Mostly Cloudy
1:20 AM 55.4 °F 42.8 °F 63% 29.98 in 6.2 mi NNW 10.4 mph - N/A   Mostly Cloudy
1:50 AM 55.4 °F 41.0 °F 58% 29.98 in 6.2 mi NNW 12.7 mph - N/A   Mostly Cloudy
2:00 AM 55 °F 42 °F 51% 30.00 in 6 mi NNW 12.7 mph - -   Partly Cloudy
2:20 AM 55.4 °F 41.0 °F 58% 30.01 in 6.2 mi NNW 11.5 mph - N/A   Mostly Cloudy
2:50 AM 55.4 °F 42.8 °F 63% 29.98 in 6.2 mi NNW 10.4 mph - N/A   Mostly Cloudy
3:20 AM 55.4 °F 42.8 °F 63% 29.98 in 6.2 mi NNW 11.5 mph - N/A   Mostly Cloudy
3:50 AM 55.4 °F 42.8 °F 63% 29.98 in 6.2 mi North 10.4 mph - N/A   Mostly Cloudy
4:20 AM 55.4 °F 42.8 °F 63% 30.01 in 6.2 mi North 10.4 mph - N/A   Mostly Cloudy
4:50 AM 55.4 °F 42.8 °F 63% 30.01 in 6.2 mi North 11.5 mph - N/A   Mostly Cloudy
5:20 AM 55.4 °F 42.8 °F 63% 29.98 in 6.2 mi North 9.2 mph - N/A   Mostly Cloudy
5:50 AM 55.4 °F 42.8 °F 63% 30.01 in 6.2 mi NNW 10.4 mph - N/A   Mostly Cloudy
6:20 AM 55.4 °F 42.8 °F 63% 30.01 in 6.2 mi NNW 10.4 mph - N/A   Mostly Cloudy
6:50 AM 55.4 °F 46.4 °F 72% 30.01 in 6.2 mi NW 11.5 mph - N/A   Mostly Cloudy
7:20 AM 53.6 °F 46.4 °F 77% 30.01 in 6.2 mi NNW 13.8 mph - N/A   Mostly Cloudy
7:50 AM 53.6 °F 46.4 °F 77% 30.04 in 6.2 mi NNW 16.1 mph - N/A   Mostly Cloudy
8:00 AM 54 °F 47 °F 70% 30.04 in 6 mi NNW 16.1 mph - -   Partly Cloudy
8:20 AM 55.4 °F 46.4 °F 72% 30.04 in 6.2 mi NNW 13.8 mph - N/A   Mostly Cloudy
8:50 AM 57.2 °F 46.4 °F 67% 30.04 in 6.2 mi NNW 12.7 mph - N/A   Mostly Cloudy
9:20 AM 59.0 °F 44.6 °F 59% 30.06 in 6.2 mi NNW 18.4 mph - N/A   Mostly Cloudy
9:50 AM 59.0 °F 46.4 °F 63% 30.06 in 6.2 mi NNW 18.4 mph - N/A   Mostly Cloudy
10:20 AM 57.2 °F 46.4 °F 67% 30.06 in 6.2 mi NNW 19.6 mph - N/A   Mostly Cloudy
10:50 AM 57.2 °F 46.4 °F 67% 30.06 in 6.2 mi NNW 24.2 mph - N/A   Mostly Cloudy
11:20 AM 59.0 °F 46.4 °F 63% 30.06 in 6.2 mi North 20.7 mph - N/A   Mostly Cloudy
11:50 AM 57.2 °F 46.4 °F 67% 30.06 in 6.2 mi North 19.6 mph - N/A   Mostly Cloudy
12:20 PM 57.2 °F 48.2 °F 72% 30.09 in 3.1 mi North 17.3 mph - N/A Rain Light Rain Showers
12:50 PM 55.4 °F 48.2 °F 77% 30.06 in 4.3 mi North 17.3 mph - N/A Rain Light Rain Showers
1:20 PM 57.2 °F 48.2 °F 72% 30.06 in 5.6 mi North 18.4 mph - N/A Rain Light Rain Showers
1:50 PM 59.0 °F 46.4 °F 63% 30.09 in 6.2 mi North 13.8 mph - N/A Rain Light Rain Showers
2:00 PM 59 °F 45 °F 50% 30.09 in 6 mi North 13.8 mph - - Rain Light Rain Showers
2:20 PM 59.0 °F 46.4 °F 63% 30.09 in 6.2 mi North 15.0 mph - N/A   Mostly Cloudy
2:50 PM 55.4 °F 48.2 °F 77% 30.09 in 3.7 mi NNE 13.8 mph - N/A Rain Light Rain Showers
3:20 PM 55.4 °F 50.0 °F 82% 30.09 in 6.2 mi North 9.2 mph - N/A Rain Light Rain Showers
3:50 PM 57.2 °F 48.2 °F 72% 30.09 in 6.2 mi North 15.0 mph - N/A Rain Light Rain Showers
4:20 PM 57.2 °F 48.2 °F 72% 30.09 in 6.2 mi NNE 11.5 mph - N/A   Mostly Cloudy
4:50 PM 57.2 °F 48.2 °F 72% 30.12 in 6.2 mi NNE 13.8 mph - N/A   Mostly Cloudy
5:20 PM 57.2 °F 48.2 °F 72% 30.12 in 6.2 mi NNE 11.5 mph - N/A   Mostly Cloudy
5:50 PM 57.2 °F 48.2 °F 72% 30.12 in 6.2 mi NNE 10.4 mph - N/A   Mostly Cloudy
6:20 PM 57.2 °F 48.2 °F 72% 30.15 in 6.2 mi NNE 11.5 mph - N/A   Mostly Cloudy
6:50 PM 57.2 °F 48.2 °F 72% 30.15 in 6.2 mi NNE 12.7 mph - N/A Rain Light Rain Showers
7:20 PM 57.2 °F 50.0 °F 77% 30.15 in 6.2 mi NE 10.4 mph - N/A   Mostly Cloudy
7:50 PM 55.4 °F 48.2 °F 77% 30.15 in 6.2 mi NNE 9.2 mph - N/A   Mostly Cloudy
8:00 PM 56 °F 49 °F 71% 30.17 in 6 mi NNE 9.2 mph - - Rain Light Rain Showers
8:20 PM 57.2 °F 48.2 °F 72% 30.15 in 6.2 mi NNE 10.4 mph - N/A   Mostly Cloudy
8:50 PM 57.2 °F 44.6 °F 63% 30.15 in 6.2 mi NNE 10.4 mph - N/A   Mostly Cloudy
9:20 PM 59.0 °F 44.6 °F 59% 30.18 in 6.2 mi North 10.4 mph - N/A   Mostly Cloudy
9:50 PM 57.2 °F 46.4 °F 67% 30.18 in 6.2 mi NNE 13.8 mph - N/A   Mostly Cloudy
10:20 PM 57.2 °F 46.4 °F 67% 30.18 in 6.2 mi NNE 11.5 mph - N/A   Mostly Cloudy
10:50 PM 57.2 °F 44.6 °F 63% 30.18 in 6.2 mi NNE 10.4 mph - N/A   Mostly Cloudy
11:20 PM 57.2 °F 44.6 °F 63% 30.18 in 6.2 mi NNE 9.2 mph - N/A   Mostly Cloudy
11:50 PM 57.2 °F 44.6 °F 63% 30.18 in 6.2 mi NNE 9.2 mph - N/A   Mostly Cloudy